Darstellungsparameter: Aktuell verwendete Einstellungen:
Skalierung der Graphiken ... ?
xyx+y,   Skalierungsfaktor:      Skalierung: Modus: x, Faktor: 1
Darstellungszeitraum ... ?
Vom - - bis: - -   Zeitraum: 23.12.2009 - 22.06.2010
Min/Max/Avg-Anzeige ... ?
Zeige MMA aktuell
Zeige MMA Monat
Zeige MMA alles
Zeige --A aktuell
Zeige --A Monat
Zeige --A alles
Keine MMA-Anzeige
MMA:
Minimum Maximum Average (ber die Originaldaten)
MMA-Basis: 14.04.2020 - 16.05.2020
Quicknavigation für Darstellung... ?
Tage:      1T, 2T, 3T, 5T -1T -2T -3T -5T +1T +2T +3T +5T
Wochen: 1W, 2W, 3W -1W -2W -3W +1W +2W +3W
Monate: 1M, 3M, 6M -1M -3M -6M +1M +3M +6M
Jahre:    1J, 3J, 5J, 10J -1J -3J -5J -10J +1J +3J +5J +10J
Nutze für die Darstellung ... ?
Originaldaten oder ...
Mittelwerte Minima Maxima auf...
Stundenbasis Tagesbasis Wochenbasis
Monatsbasis Jahresbasis      Datenbasis: Mittelwerte auf Tagesbasis
Darstellen als:
Statistik (Auto) Statistik J:M      Darstellung:
Zur Graphik,    zurück zur Übersicht aller Sensoren.
 
Tabellarische Datenbersicht: ?
 
Sensor: Nr:Datum:Temp:Abs-Feuchte:Windchill:Wind:
Aussen-T/F 1 23-12-2009 00:00:00 0.49333 C 4.68 g/m*3 0.49 C 0 km/h
2 24-12-2009 00:00:00 2.31333 C 5.15 g/m*3 2.31 C 0 km/h
3 25-12-2009 00:00:00 4.38824 C 5.08 g/m*3 4.39 C 0 km/h
4 26-12-2009 00:00:00 2.04583 C 4.45 g/m*3 2.05 C 0 km/h
5 27-12-2009 00:00:00 0.5475 C 4.38 g/m*3 0.55 C 0 km/h
6 28-12-2009 00:00:00 3.1425 C 4.49 g/m*3 3.14 C 0 km/h
7 29-12-2009 00:00:00 0.4625 C 4.61 g/m*3 0.46 C 0 km/h
8 30-12-2009 00:00:00 7.05667 C 7.27 g/m*3 7.06 C 0 km/h
9 31-12-2009 00:00:00 5.32667 C 6.59 g/m*3 5.33 C 0 km/h
10 01-01-2010 00:00:00 -0.1725 C 4.38 g/m*3 -0.17 C 0 km/h
11 02-01-2010 00:00:00 -1.51083 C 3.34 g/m*3 -1.51 C 0 km/h
12 03-01-2010 00:00:00 -1.79667 C 3.45 g/m*3 -1.8 C 0 km/h
13 04-01-2010 00:00:00 -5.24083 C 2.41 g/m*3 -5.24 C 0 km/h
14 05-01-2010 00:00:00 -8.00083 C 2.22 g/m*3 -8 C 0 km/h
15 06-01-2010 00:00:00 -6.88917 C 2.25 g/m*3 -6.89 C 0 km/h
16 07-01-2010 00:00:00 -3.75966 C 2.79 g/m*3 -3.76 C 0 km/h
17 08-01-2010 00:00:00 -4.82167 C 2.54 g/m*3 -4.82 C 0 km/h
18 09-01-2010 00:00:00 -2.655 C 3.05 g/m*3 -2.66 C 0 km/h
19 10-01-2010 00:00:00 -1.87083 C 3.27 g/m*3 -1.87 C 0 km/h
20 11-01-2010 00:00:00 -1.42833 C 3.62 g/m*3 -1.43 C 0 km/h
21 12-01-2010 00:00:00 -1.65833 C 3.4 g/m*3 -1.66 C 0 km/h
22 13-01-2010 00:00:00 -2.2325 C 2.99 g/m*3 -2.23 C 0 km/h
23 14-01-2010 00:00:00 0.35417 C 3.98 g/m*3 0.35 C 0 km/h
24 15-01-2010 00:00:00 0.87333 C 4.07 g/m*3 0.87 C 0 km/h
25 16-01-2010 00:00:00 -0.11833 C 3.75 g/m*3 -0.12 C 0 km/h
Sensor: Nr:Datum:Temp:Abs-Feuchte:Windchill:Wind:
Aussen-T/F 26 17-01-2010 00:00:00 2.09667 C 5.1 g/m*3 2.1 C 0 km/h
27 18-01-2010 00:00:00 3.38333 C 5.07 g/m*3 3.38 C 0 km/h
28 19-01-2010 00:00:00 2.24583 C 5.1 g/m*3 2.25 C 0 km/h
29 20-01-2010 00:00:00 1.97417 C 4.66 g/m*3 1.97 C 0 km/h
30 21-01-2010 00:00:00 2.45126 C 4.02 g/m*3 2.45 C 0 km/h
31 22-01-2010 00:00:00 2.93667 C 4.24 g/m*3 2.94 C 0 km/h
32 23-01-2010 00:00:00 -0.41333 C 3.36 g/m*3 -0.41 C 0 km/h
33 24-01-2010 00:00:00 0.27167 C 4.06 g/m*3 0.27 C 0 km/h
34 25-01-2010 00:00:00 0.01667 C 4.19 g/m*3 0.02 C 0 km/h
35 26-01-2010 00:00:00 -3.325 C 2.8 g/m*3 -3.33 C 0 km/h
36 27-01-2010 00:00:00 -5.54083 C 2.18 g/m*3 -5.54 C 0 km/h
37 28-01-2010 00:00:00 1.20667 C 4.04 g/m*3 1.21 C 0 km/h
38 29-01-2010 00:00:00 1.39083 C 4.5 g/m*3 1.39 C 0 km/h
39 30-01-2010 00:00:00 -1.54583 C 3.39 g/m*3 -1.55 C 0 km/h
40 31-01-2010 00:00:00 -1.62333 C 3.2 g/m*3 -1.62 C 0 km/h
41 01-02-2010 00:00:00 0.20167 C 3.69 g/m*3 0.2 C 0 km/h
42 02-02-2010 00:00:00 0.69916 C 4 g/m*3 0.7 C 0 km/h
43 03-02-2010 00:00:00 2.28899 C 5.05 g/m*3 2.29 C 0 km/h
44 04-02-2010 00:00:00 4.17018 C 5.55 g/m*3 4.17 C 0 km/h
45 05-02-2010 00:00:00 3.29649 C 4.9 g/m*3 3.3 C 0 km/h
46 06-02-2010 00:00:00 4.55172 C 5.47 g/m*3 4.55 C 0 km/h
47 07-02-2010 00:00:00 4.17018 C 5.02 g/m*3 4.17 C 0 km/h
48 08-02-2010 00:00:00 -0.75 C 2.85 g/m*3 -0.75 C 0 km/h
49 09-02-2010 00:00:00 -3.74483 C 2.17 g/m*3 -3.74 C 0 km/h
50 10-02-2010 00:00:00 -4.8 C 2.32 g/m*3 -4.8 C 0 km/h
Sensor: Nr:Datum:Temp:Abs-Feuchte:Windchill:Wind:
Aussen-T/F 51 11-02-2010 00:00:00 -3.79828 C 2.62 g/m*3 -3.8 C 0 km/h
52 12-02-2010 00:00:00 -2.14737 C 2.95 g/m*3 -2.15 C 0 km/h
53 13-02-2010 00:00:00 -2.57414 C 2.82 g/m*3 -2.57 C 0 km/h
54 14-02-2010 00:00:00 -2.13621 C 3.1 g/m*3 -2.14 C 0 km/h
55 15-02-2010 00:00:00 -1.12632 C 3.21 g/m*3 -1.13 C 0 km/h
56 16-02-2010 00:00:00 -1.16379 C 3.02 g/m*3 -1.16 C 0 km/h
57 17-02-2010 00:00:00 -1.61754 C 3.18 g/m*3 -1.62 C 0 km/h
58 18-02-2010 00:00:00 3.2569 C 4.56 g/m*3 3.26 C 0 km/h
59 19-02-2010 00:00:00 3.59375 C 4.12 g/m*3 3.59 C 0 km/h
60 20-02-2010 00:00:00 1.69333 C 3.53 g/m*3 1.69 C 0 km/h
61 21-02-2010 00:00:00 2.87833 C 4.25 g/m*3 2.88 C 0 km/h
62 22-02-2010 00:00:00 6.76417 C 5.24 g/m*3 6.76 C 0 km/h
63 23-02-2010 00:00:00 9.7875 C 7.07 g/m*3 9.79 C 0 km/h
64 24-02-2010 00:00:00 9.55 C 6.5 g/m*3 9.55 C 0 km/h
65 25-02-2010 00:00:00 9.58 C 5.92 g/m*3 9.58 C 0 km/h
66 26-02-2010 00:00:00 8.62667 C 5.33 g/m*3 8.63 C 0 km/h
67 27-02-2010 00:00:00 8.4025 C 4.07 g/m*3 8.4 C 0 km/h
68 28-02-2010 00:00:00 8.30667 C 5.5 g/m*3 8.31 C 0 km/h
69 01-03-2010 00:00:00 5.40917 C 3.85 g/m*3 5.41 C 0 km/h
70 02-03-2010 00:00:00 3.135 C 3.87 g/m*3 3.14 C 0 km/h
71 03-03-2010 00:00:00 2.9925 C 3.33 g/m*3 2.99 C 0 km/h
72 04-03-2010 00:00:00 2.47395 C 2.67 g/m*3 2.47 C 0 km/h
73 05-03-2010 00:00:00 0.77667 C 2.41 g/m*3 0.78 C 0 km/h
74 06-03-2010 00:00:00 -0.47083 C 3.38 g/m*3 -0.47 C 0 km/h
75 07-03-2010 00:00:00 -1.6825 C 2.27 g/m*3 -1.68 C 0 km/h
Sensor: Nr:Datum:Temp:Abs-Feuchte:Windchill:Wind:
Aussen-T/F 76 08-03-2010 00:00:00 -1.21083 C 1.92 g/m*3 -1.21 C 0 km/h
77 09-03-2010 00:00:00 -0.87167 C 1.76 g/m*3 -0.87 C 0 km/h
78 10-03-2010 00:00:00 1.41667 C 1.75 g/m*3 1.42 C 0 km/h
79 11-03-2010 00:00:00 0.40167 C 2.56 g/m*3 0.4 C 0 km/h
80 12-03-2010 00:00:00 1.61167 C 3.86 g/m*3 1.61 C 0 km/h
81 13-03-2010 00:00:00 4.36583 C 4.23 g/m*3 4.37 C 0 km/h
82 14-03-2010 00:00:00 5.79833 C 4.06 g/m*3 5.8 C 0 km/h
83 15-03-2010 00:00:00 6.445 C 5.04 g/m*3 6.45 C 0 km/h
84 16-03-2010 00:00:00 6.08067 C 5.63 g/m*3 6.08 C 0 km/h
85 17-03-2010 00:00:00 6.69417 C 4.48 g/m*3 6.69 C 0 km/h
86 18-03-2010 00:00:00 10.12333 C 4.54 g/m*3 10.12 C 0 km/h
87 19-03-2010 00:00:00 15.0225 C 4.66 g/m*3 15.02 C 0 km/h
88 20-03-2010 00:00:00 14.37667 C 8.46 g/m*3 14.38 C 0 km/h
89 21-03-2010 00:00:00 11.23667 C 8.65 g/m*3 11.24 C 0 km/h
90 22-03-2010 00:00:00 9.7575 C 7.03 g/m*3 9.76 C 0 km/h
91 23-03-2010 00:00:00 8.94 C 6.12 g/m*3 8.94 C 0 km/h
92 24-03-2010 00:00:00 11.9975 C 6.24 g/m*3 12 C 0 km/h
93 25-03-2010 00:00:00 14.27083 C 6.52 g/m*3 14.27 C 0 km/h
94 26-03-2010 00:00:00 10.0325 C 7.02 g/m*3 10.03 C 0 km/h
95 27-03-2010 00:00:00 9.34333 C 5.7 g/m*3 9.34 C 0 km/h
96 28-03-2010 00:00:00 9.93478 C 6.19 g/m*3 9.93 C 0 km/h
97 29-03-2010 00:00:00 11.88167 C 8.04 g/m*3 11.88 C 0 km/h
98 30-03-2010 00:00:00 12.70672 C 6.43 g/m*3 12.71 C 0 km/h
99 31-03-2010 00:00:00 8.18667 C 4.45 g/m*3 8.19 C 0 km/h
100 01-04-2010 00:00:00 5.84333 C 3.76 g/m*3 5.84 C 0 km/h
Sensor: Nr:Datum:Temp:Abs-Feuchte:Windchill:Wind:
Aussen-T/F 101 02-04-2010 00:00:00 6.48583 C 4.37 g/m*3 6.49 C 0 km/h
102 03-04-2010 00:00:00 9.73667 C 5.47 g/m*3 9.74 C 0 km/h
103 04-04-2010 00:00:00 8.98833 C 5.25 g/m*3 8.99 C 0 km/h
104 05-04-2010 00:00:00 9.15083 C 4.56 g/m*3 9.15 C 0 km/h
105 06-04-2010 00:00:00 10.38167 C 4.41 g/m*3 10.38 C 0 km/h
106 07-04-2010 00:00:00 13.61167 C 5.07 g/m*3 13.61 C 0 km/h
107 08-04-2010 00:00:00 12.375 C 6.96 g/m*3 12.38 C 0 km/h
108 09-04-2010 00:00:00 11.49917 C 5.91 g/m*3 11.5 C 0 km/h
109 10-04-2010 00:00:00 11.3575 C 4.66 g/m*3 11.36 C 0 km/h
110 11-04-2010 00:00:00 7.86667 C 4.35 g/m*3 7.87 C 0 km/h
111 12-04-2010 00:00:00 7.44958 C 5.35 g/m*3 7.45 C 0 km/h
112 13-04-2010 00:00:00 11.85583 C 6.16 g/m*3 11.86 C 0 km/h
113 14-04-2010 00:00:00 11.76417 C 4.66 g/m*3 11.76 C 0 km/h
114 15-04-2010 00:00:00 11.8575 C 5 g/m*3 11.86 C 0 km/h
115 16-04-2010 00:00:00 9.71583 C 4.32 g/m*3 9.72 C 0 km/h
116 17-04-2010 00:00:00 11.1225 C 4.54 g/m*3 11.12 C 0 km/h
117 18-04-2010 00:00:00 13.27917 C 4.52 g/m*3 13.28 C 0 km/h
118 19-04-2010 00:00:00 11.18333 C 5.12 g/m*3 11.18 C 0 km/h
119 20-04-2010 00:00:00 11.13833 C 5.11 g/m*3 11.14 C 0 km/h
120 21-04-2010 00:00:00 7.34417 C 3.84 g/m*3 7.34 C 0 km/h
121 22-04-2010 00:00:00 8.35333 C 3.82 g/m*3 8.35 C 0 km/h
122 23-04-2010 00:00:00 11.44917 C 4.09 g/m*3 11.45 C 0 km/h
123 24-04-2010 00:00:00 14.91167 C 4.56 g/m*3 14.91 C 0 km/h
124 25-04-2010 00:00:00 17.1075 C 5.25 g/m*3 17.11 C 0 km/h
125 26-04-2010 00:00:00 15.72269 C 7.07 g/m*3 15.72 C 0 km/h
Sensor: Nr:Datum:Temp:Abs-Feuchte:Windchill:Wind:
Aussen-T/F 126 27-04-2010 00:00:00 15.50417 C 6.31 g/m*3 15.5 C 0 km/h
127 28-04-2010 00:00:00 16.8925 C 6.33 g/m*3 16.89 C 0 km/h
128 29-04-2010 00:00:00 19.21417 C 6.68 g/m*3 19.21 C 0 km/h
129 30-04-2010 00:00:00 18.69583 C 7.11 g/m*3 18.7 C 0 km/h
130 01-05-2010 00:00:00 15.09917 C 6.78 g/m*3 15.1 C 0 km/h
131 02-05-2010 00:00:00 13.48583 C 7.64 g/m*3 13.49 C 0 km/h
132 03-05-2010 00:00:00 10.01667 C 6.94 g/m*3 10.02 C 0 km/h
133 04-05-2010 00:00:00 9.78833 C 5.53 g/m*3 9.79 C 0 km/h
134 05-05-2010 00:00:00 10.09083 C 3.78 g/m*3 10.09 C 0 km/h
135 06-05-2010 00:00:00 6.68167 C 6.78 g/m*3 6.68 C 0 km/h
136 07-05-2010 00:00:00 6.49417 C 6.66 g/m*3 6.49 C 0 km/h
137 08-05-2010 00:00:00 11.06218 C 6.38 g/m*3 11.06 C 0 km/h
138 09-05-2010 00:00:00 12.575 C 6.93 g/m*3 12.58 C 0 km/h
139 10-05-2010 00:00:00 11.99917 C 6.67 g/m*3 12 C 0 km/h
140 11-05-2010 00:00:00 11.53167 C 6.84 g/m*3 11.53 C 0 km/h
141 12-05-2010 00:00:00 8.62333 C 6.33 g/m*3 8.62 C 0 km/h
142 13-05-2010 00:00:00 8.07667 C 6.31 g/m*3 8.08 C 0 km/h
143 14-05-2010 00:00:00 8.97333 C 7.22 g/m*3 8.97 C 0 km/h
144 15-05-2010 00:00:00 10.6825 C 5.92 g/m*3 10.68 C 0 km/h
145 16-05-2010 00:00:00 13.32917 C 5.32 g/m*3 13.33 C 0 km/h
146 17-05-2010 00:00:00 10.56917 C 7.13 g/m*3 10.57 C 0 km/h
147 18-05-2010 00:00:00 11.44333 C 6.07 g/m*3 11.44 C 0 km/h
148 19-05-2010 00:00:00 10.30583 C 6.32 g/m*3 10.31 C 0 km/h
149 20-05-2010 00:00:00 12.64034 C 6.31 g/m*3 12.64 C 0 km/h
150 21-05-2010 00:00:00 16.54333 C 7.66 g/m*3 16.54 C 0 km/h
Sensor: Nr:Datum:Temp:Abs-Feuchte:Windchill:Wind:
Aussen-T/F 151 22-05-2010 00:00:00 18.32583 C 7.75 g/m*3 18.33 C 0 km/h
152 23-05-2010 00:00:00 20.32083 C 8.65 g/m*3 20.32 C 0 km/h
153 24-05-2010 00:00:00 21.23 C 8.94 g/m*3 21.23 C 0 km/h
154 25-05-2010 00:00:00 20.64583 C 7.99 g/m*3 20.65 C 0 km/h
155 26-05-2010 00:00:00 15.41917 C 9.07 g/m*3 15.42 C 0 km/h
156 27-05-2010 00:00:00 15.6175 C 8.18 g/m*3 15.62 C 0 km/h
157 28-05-2010 00:00:00 17.3075 C 7.94 g/m*3 17.31 C 0 km/h
158 29-05-2010 00:00:00 16.34 C 7.23 g/m*3 16.34 C 0 km/h
159 30-05-2010 00:00:00 14.5975 C 8.93 g/m*3 14.6 C 0 km/h
160 31-05-2010 00:00:00 11.56667 C 8.16 g/m*3 11.57 C 0 km/h
161 01-06-2010 00:00:00 16.01833 C 8.41 g/m*3 16.02 C 0 km/h
162 02-06-2010 00:00:00 17.66471 C 7.79 g/m*3 17.66 C 0 km/h
163 03-06-2010 00:00:00 20.49083 C 7.88 g/m*3 20.49 C 0 km/h
164 04-06-2010 00:00:00 21.43 C 7.91 g/m*3 21.43 C 0 km/h
165 05-06-2010 00:00:00 22.97667 C 8.82 g/m*3 22.98 C 0 km/h
166 06-06-2010 00:00:00 20.91333 C 11.1 g/m*3 20.91 C 0 km/h
167 07-06-2010 00:00:00 19.58833 C 9.05 g/m*3 19.59 C 0 km/h
168 08-06-2010 00:00:00 19.76833 C 9.52 g/m*3 19.77 C 0 km/h
169 09-06-2010 00:00:00 22.5625 C 11.34 g/m*3 22.56 C 0 km/h
170 10-06-2010 00:00:00 22.76417 C 13.55 g/m*3 22.76 C 0 km/h
171 11-06-2010 00:00:00 22.89167 C 11.59 g/m*3 22.89 C 0 km/h
172 12-06-2010 00:00:00 18.84917 C 10.25 g/m*3 18.85 C 0 km/h
173 13-06-2010 00:00:00 18.25083 C 7.8 g/m*3 18.25 C 0 km/h
174 14-06-2010 00:00:00 19.76667 C 7.8 g/m*3 19.77 C 0 km/h
175 15-06-2010 00:00:00 18.9 C 8.06 g/m*3 18.9 C 0 km/h
Sensor: Nr:Datum:Temp:Abs-Feuchte:Windchill:Wind:
Aussen-T/F 176 16-06-2010 00:00:00 18.82833 C 6.18 g/m*3 18.83 C 0 km/h
177 17-06-2010 00:00:00 15.08583 C 9.23 g/m*3 15.09 C 0 km/h
178 18-06-2010 00:00:00 15.2325 C 9.35 g/m*3 15.23 C 0 km/h
179 19-06-2010 00:00:00 14.2725 C 6.27 g/m*3 14.27 C 0 km/h
180 20-06-2010 00:00:00 13.20333 C 6.8 g/m*3 13.2 C 0 km/h
181 21-06-2010 00:00:00 14.11083 C 6.37 g/m*3 14.11 C 0 km/h
182 22-06-2010 00:00:00 17.38667 C 7.03 g/m*3 17.39 C 0 km/h

Maximal/Minimal-Werte vom 14.04.2020 - 16.05.2020

Sensor Min Max Avg
Temp
(Aussen-T/F)
-0.1 °C
15-04-2020  06:55:00
26.2 °C
17-04-2020  18:05:00
11.98 °C

Die Daten stammen von einer Davis Vantage Pro 2 Wetter-Station und werden unter Linux mit der Software wview2wettercgi und aufbereitet. Alle Angaben erfolgen ohne Gewähr für ihre Vollständigkeit oder Richtigkeit.
Kontakt: Rainer Krienke krienke@uni-koblenz.de . Meine Webseiten an der Uni Koblenz oder privat.
Version: $Revision: 0.78 $